[[{"header":{"parameterUnit":"m.s-1","parameterCategory":1,"la1":30.2991,"la2":30.254,"lo1":-89.0895,"lo2":-89.0444,"dy":0.0017,"dx":0.0017,"nx":28,"ny":28,"refTime":"2024-06-22T03:00:00:Z","depth":0,"parameterNumber":2,"parameterNumberName":"U-component_of_WINDS"},"data":[0,0,0,0,0,0,0,0,0,0,0,0,0,0,0,0,0,0,0,0,0,0,0,0,0,0,0,0,0,0,0,0,0,0,0,0,0,0,0,0,0,0,0,0,0,0,0,0,0,0,0,0,0,0,0,0,0,0,0.195,0.1951,0,0.1992,0.1992,0.1993,0.2042,0.2043,0.2044,0.2044,0.2087,0.2087,0.2087,0,0,0,0,0,0,0,0,0,0,0,0,0,0.1914,0.1914,0.195,0.1951,0.1951,0.1992,0.1992,0.1993,0.2042,0.2043,0.2044,0.2045,0.2086,0.2087,0.2087,0,0,0,0,0,0,0,0,0,0,0,0,0,0.194,0.1914,0.195,0.1981,0.1984,0.1992,0.1992,0.1993,0.2042,0.2043,0.2044,0.2045,0.2086,0.2087,0.2087,0.2068,0,0,0.2089,0.209,0,0,0,0,0,0,0,0,0.1938,0.1941,0.1976,0.1979,0.1982,0.2013,0.1995,0.2018,0.2042,0.202,0.2044,0.2046,0.2061,0.2064,0.2069,0.207,0.2072,0.2089,0.209,0.209,0.209,0,0,0,0,0,0,0,0.1936,0.194,0.1967,0.1976,0.198,0.1993,0.1997,0.2,0.2034,0.2022,0.2026,0.203,0.2063,0.2068,0.2071,0.2073,0.2089,0.209,0.209,0.2091,0.2062,0.206,0,0,0,0,0,0,0.193,0.1938,0.1966,0.1968,0.1963,0.1992,0.1998,0.2002,0.2034,0.204,0.2029,0.2032,0.2067,0.207,0.2072,0.2052,0.209,0.2091,0.2091,0.2063,0.2061,0.206,0,0,0,0,0,0,0.1929,0.1932,0.1964,0.1954,0.1959,0.1992,0.1996,0.2002,0.2008,0.2039,0.2045,0.2028,0.2068,0.2071,0.2069,0.2055,0.2091,0.2091,0.2064,0.2062,0.2061,0.2012,0,0,0,0,0,0,0.1928,0.1931,0.1924,0.1953,0.1959,0.196,0.1995,0.2002,0.2009,0.2013,0.204,0.2045,0.2069,0.2068,0.207,0.2056,0.2092,0.2066,0.2063,0.2061,0.2015,0.2009,0.2004,0,0,0,0,0,0.1926,0.1909,0.1924,0.1927,0.1951,0.1959,0.1962,0.199,0.2007,0.2001,0.2021,0.2045,0.2056,0.2067,0.207,0.2056,0.2067,0.2064,0.2061,0.2018,0.201,0.2004,0,0,0,0,0,0,0.1877,0.1913,0.193,0.1921,0.1937,0.1967,0.196,0.1981,0.1992,0.1995,0.2029,0.2035,0.2029,0.2042,0.2054,0.204,0.2065,0.2063,0.2031,0.2024,0.2018,0.2015,0.2092,0,0,0,0,0,0.1865,0.1868,0.19,0.1889,0.1896,0.1926,0.1931,0.1951,0.1968,0.1975,0.1995,0.201,0.2018,0.2022,0.203,0.2018,0.2025,0.201,0.2004,0.1999,0.1997,0.1992,0.1985,0.2052,0.2052,0.2052,0,0,0.184,0.1861,0.186,0.188,0.1894,0.1897,0.1931,0.1933,0.1935,0.1975,0.1974,0.199,0.2009,0.2002,0.2,0.2013,0.198,0.1996,0.1992,0.1992,0.1988,0.1982,0.1976,0.205,0.205,0.2051,0,0,0.1797,0.1812,0.1805,0.1819,0.184,0.1861,0.1859,0.1887,0.1898,0.1899,0.1929,0.1932,0.1944,0.1957,0.1965,0.1927,0.195,0.1929,0.1899,0.1894,0.1888,0.1884,0.187,0.1865,0.1927,0.1927,0.1927,0,0.1763,0.1768,0.1799,0.1799,0.1806,0.1843,0.1836,0.1848,0.1871,0.1876,0.189,0.1906,0.1922,0.1919,0.191,0.1915,0.1914,0.1926,0.1887,0.1882,0.1879,0.1866,0.1861,0.1924,0.1924,0.1925,0.1925,0,0.1726,0.173,0.1722,0.1743,0.175,0.1746,0.1777,0.178,0.18,0.1819,0.1818,0.1839,0.1852,0.1853,0.1872,0.1853,0.186,0.188,0.1906,0.1869,0.1858,0.1854,0.192,0.1921,0.1922,0.1923,0,0,0.1652,0.1691,0.1687,0.1698,0.1725,0.1728,0.1726,0.174,0.1742,0.1757,0.1756,0.1766,0.1785,0.1794,0.1815,0.181,0.1779,0.1831,0.1832,0.1821,0.1759,0.1744,0.1738,0.1795,0.1794,0.1793,0.1758,0,0.1613,0.1612,0.164,0.1632,0.1635,0.1671,0.167,0.1686,0.1704,0.1709,0.1729,0.1736,0.176,0.1766,0.1763,0.1784,0.1767,0.1787,0.1794,0.1794,0.1788,0.1732,0.1715,0.168,0.1753,0.1753,0.1752,0,0.1567,0.158,0.1572,0.1599,0.1602,0.16,0.1615,0.162,0.164,0.1653,0.1664,0.1688,0.1689,0.1713,0.1715,0.1727,0.1732,0.1743,0.1742,0.1744,0.1771,0.1731,0.167,0.1665,0.1746,0.1746,0.1747,0,0.1513,0.1528,0.1526,0.1534,0.1566,0.1564,0.1577,0.1598,0.1604,0.1617,0.1622,0.1635,0.1642,0.1651,0.1679,0.1694,0.1677,0.1704,0.1688,0.1687,0.1682,0.1682,0.162,0.1686,0.1686,0.1686,0.1686,0,0.1467,0.146,0.1502,0.15,0.1494,0.1527,0.152,0.1537,0.1555,0.1557,0.1589,0.1591,0.1627,0.1632,0.1654,0.1652,0.1655,0.1666,0.1671,0.1663,0.1661,0.1666,0.1669,0.1685,0.1685,0.1685,0.1686,0,0.1405,0.1433,0.1432,0.1463,0.1471,0.1465,0.1492,0.1491,0.1512,0.1514,0.1517,0.1548,0.1557,0.1585,0.1601,0.1615,0.1606,0.1617,0.16,0.1603,0.1586,0.1587,0.1524,0.1518,0.1588,0.1587,0.1586,0,0.1373,0.1369,0.14,0.1404,0.1416,0.1422,0.1429,0.1461,0.1467,0.1489,0.1486,0.1497,0.1508,0.152,0.1544,0.1556,0.1568,0.1545,0.157,0.1561,0.1567,0.1567,0.1567,0.1539,0.1538,0.1538,0.1537,0,0.1314,0.1328,0.1337,0.1351,0.1358,0.1371,0.1385,0.1386,0.1422,0.1427,0.1436,0.1445,0.1461,0.1471,0.1487,0.1501,0.1525,0.1529,0.1526,0.1517,0.1507,0.1512,0.1585,0.153,0.1531,0.1532,0.1532,0.1532,0.1266,0.1265,0.1286,0.1295,0.1309,0.1322,0.1323,0.1344,0.1352,0.1368,0.1387,0.1393,0.1414,0.1438,0.145,0.1456,0.1469,0.1465,0.1464,0.1462,0.1458,0.1506,0.146,0.146,0.146,0.146,0.146,0,0.1208,0.1224,0.1232,0.1251,0.1258,0.1281,0.1298,0.1302,0.1308,0.1325,0.1335,0.1346,0.1356,0.1382,0.1395,0.1395,0.1406,0.1397,0.1397,0.14,0.1445,0.1447,0.1388,0.1388,0.1388,0.1388,0.1388,0.1388,0.1179,0.1177,0.1194,0.12,0.1216,0.1223,0.1231,0.1243,0.1257,0.1267,0.1276,0.1293,0.1314,0.1329,0.134,0.1347,0.135,0.1338,0.1348,0.139,0.1397,0.1403,0.1405,0.1338,0.1338,0.1303,0.1302,0.1302]},{"header":{"parameterUnit":"m.s-1","parameterCategory":1,"la1":30.2991,"la2":30.254,"lo1":-89.0895,"lo2":-89.0444,"dy":0.0017,"dx":0.0017,"nx":28,"ny":28,"refTime":"2024-06-22T03:00:00:Z","depth":0,"parameterNumber":3,"parameterNumberName":"V-component_of_WINDS"},"data":[0,0,0,0,0,0,0,0,0,0,0,0,0,0,0,0,0,0,0,0,0,0,0,0,0,0,0,0,0,0,0,0,0,0,0,0,0,0,0,0,0,0,0,0,0,0,0,0,0,0,0,0,0,0,0,0,0,0,0.4992,0.4992,0,0.4984,0.4984,0.4984,0.4985,0.4986,0.4986,0.4986,0.4978,0.4978,0.4977,0,0,0,0,0,0,0,0,0,0,0,0,0,0.5008,0.5008,0.4992,0.4992,0.4992,0.4984,0.4984,0.4984,0.4985,0.4986,0.4986,0.4986,0.4978,0.4978,0.4977,0,0,0,0,0,0,0,0,0,0,0,0,0,0.5001,0.5008,0.4992,0.4991,0.4991,0.4984,0.4984,0.4984,0.4985,0.4986,0.4986,0.4986,0.4978,0.4978,0.4977,0.4969,0,0,0.4976,0.4975,0,0,0,0,0,0,0,0,0.5001,0.5,0.4992,0.4991,0.4991,0.4986,0.4986,0.4979,0.4985,0.4988,0.4986,0.4986,0.498,0.498,0.4978,0.4969,0.4969,0.4976,0.4975,0.4975,0.4975,0,0,0,0,0,0,0,0.5001,0.5,0.4989,0.4992,0.4991,0.4992,0.4991,0.4985,0.4983,0.4987,0.4988,0.4987,0.498,0.4978,0.4978,0.4969,0.4976,0.4975,0.4975,0.4975,0.4952,0.4952,0,0,0,0,0,0,0.5002,0.5001,0.4989,0.4988,0.4997,0.4991,0.499,0.4987,0.4983,0.4982,0.4986,0.4987,0.4979,0.4978,0.4977,0.4967,0.4975,0.4975,0.4974,0.4952,0.4952,0.4952,0,0,0,0,0,0,0.5002,0.5001,0.4989,0.4995,0.4993,0.4991,0.4987,0.4987,0.4985,0.4982,0.4982,0.4985,0.4979,0.4978,0.4971,0.4967,0.4974,0.4974,0.4953,0.4952,0.4952,0.4947,0,0,0,0,0,0,0.5003,0.5001,0.4998,0.4994,0.4993,0.4983,0.4987,0.4987,0.4984,0.4984,0.498,0.498,0.4979,0.4972,0.4971,0.4966,0.4973,0.4953,0.4952,0.4952,0.4948,0.4947,0.4946,0,0,0,0,0,0.5003,0.4998,0.4998,0.4997,0.4989,0.4983,0.4982,0.4981,0.4984,0.4981,0.4979,0.498,0.4968,0.4971,0.497,0.4965,0.4953,0.4953,0.4952,0.4948,0.4947,0.4946,0,0,0,0,0,0,0.5002,0.4997,0.4998,0.4991,0.4987,0.4983,0.498,0.498,0.4976,0.4976,0.4976,0.4975,0.4968,0.4966,0.497,0.4957,0.4961,0.496,0.4958,0.4957,0.4956,0.4957,0.4973,0,0,0,0,0,0.5,0.4996,0.4992,0.4986,0.4984,0.4982,0.498,0.4979,0.4976,0.4974,0.4972,0.4968,0.4963,0.496,0.4956,0.4947,0.4946,0.4943,0.4943,0.4942,0.4941,0.4935,0.4934,0.4949,0.4949,0.4949,0,0,0.4998,0.4995,0.4992,0.4986,0.4983,0.4978,0.4981,0.4976,0.4972,0.4973,0.4966,0.4964,0.496,0.4952,0.4949,0.4951,0.4936,0.4941,0.494,0.494,0.4935,0.4933,0.4932,0.4949,0.4949,0.4949,0,0,0.4991,0.4988,0.4982,0.4979,0.4975,0.4973,0.4972,0.4968,0.4966,0.4959,0.496,0.4955,0.4947,0.4944,0.4941,0.4931,0.4932,0.4929,0.4924,0.4919,0.4918,0.4917,0.4912,0.4911,0.4929,0.4929,0.4929,0,0.4988,0.4981,0.498,0.4974,0.4971,0.4971,0.4965,0.4962,0.4956,0.4954,0.4956,0.4945,0.4942,0.4933,0.4931,0.4929,0.4927,0.493,0.4918,0.4917,0.4916,0.4912,0.491,0.4928,0.4928,0.4928,0.4928,0,0.4977,0.4972,0.4968,0.4962,0.4958,0.4952,0.495,0.4946,0.4946,0.4944,0.4936,0.4933,0.4927,0.4925,0.4925,0.4915,0.4916,0.4918,0.4922,0.4914,0.491,0.4909,0.4928,0.4928,0.4928,0.4928,0,0,0.4969,0.4962,0.496,0.4957,0.4952,0.4947,0.4941,0.4935,0.4932,0.4927,0.4922,0.4914,0.4916,0.4912,0.4912,0.4907,0.4898,0.4909,0.4909,0.4907,0.4887,0.4885,0.4883,0.4899,0.4898,0.4898,0.4887,0,0.4961,0.495,0.4948,0.4938,0.4933,0.4933,0.4927,0.4923,0.4921,0.4915,0.4913,0.4907,0.491,0.4908,0.4903,0.49,0.4894,0.4901,0.4893,0.4893,0.4894,0.4881,0.488,0.4869,0.4885,0.4885,0.4885,0,0.495,0.4945,0.4935,0.4929,0.4926,0.4921,0.4915,0.491,0.4905,0.4904,0.4899,0.4899,0.4892,0.4896,0.4886,0.4891,0.4887,0.4885,0.4885,0.4884,0.4888,0.488,0.4866,0.4864,0.4883,0.4883,0.4883,0,0.4945,0.4935,0.4927,0.4925,0.4918,0.4914,0.4911,0.4906,0.4902,0.4897,0.4894,0.4888,0.4885,0.488,0.4877,0.4881,0.4867,0.4871,0.4865,0.4865,0.4862,0.4863,0.4848,0.4861,0.4861,0.4861,0.4861,0,0.4936,0.4929,0.4925,0.492,0.4912,0.491,0.4902,0.4899,0.4895,0.4889,0.4888,0.4883,0.488,0.4874,0.4872,0.4864,0.4862,0.4861,0.486,0.4861,0.4861,0.4858,0.4859,0.486,0.486,0.4861,0.4861,0,0.4929,0.4925,0.4917,0.491,0.4909,0.4903,0.4898,0.4893,0.489,0.4883,0.4881,0.4876,0.4869,0.4866,0.4858,0.4856,0.4846,0.4847,0.4848,0.4848,0.4842,0.4842,0.4824,0.4822,0.4837,0.4837,0.4837,0,0.4923,0.4918,0.4911,0.4907,0.4903,0.4897,0.4892,0.489,0.4885,0.4878,0.4874,0.4866,0.486,0.4849,0.4845,0.4838,0.4838,0.4832,0.4837,0.4837,0.4837,0.4837,0.4836,0.4831,0.4831,0.4831,0.4831,0,0.4913,0.4911,0.4905,0.4898,0.4893,0.4887,0.4882,0.4878,0.4875,0.487,0.4862,0.4857,0.4848,0.484,0.4833,0.4829,0.4829,0.4829,0.4827,0.4828,0.4828,0.4827,0.4845,0.483,0.483,0.483,0.483,0.483,0.4906,0.4901,0.4895,0.4888,0.4883,0.4878,0.4872,0.4868,0.4862,0.4854,0.4852,0.4844,0.4838,0.4828,0.4824,0.4817,0.4818,0.4816,0.4815,0.4815,0.4814,0.4829,0.4816,0.4816,0.4816,0.4816,0.4816,0,0.4896,0.4891,0.4885,0.4877,0.4871,0.4871,0.4864,0.4859,0.4852,0.4846,0.484,0.483,0.4822,0.4817,0.481,0.4805,0.4805,0.4803,0.4803,0.4802,0.4813,0.4815,0.4803,0.4803,0.4803,0.4803,0.4803,0.4803,0.489,0.4881,0.4878,0.4866,0.4862,0.4853,0.485,0.4844,0.4839,0.4829,0.4822,0.4819,0.4813,0.4805,0.4797,0.4796,0.4793,0.4791,0.479,0.48,0.4802,0.4803,0.4805,0.479,0.479,0.4779,0.4779,0.4779]}]]